AXM5325 WBKK-WMKP

Flight info

Callsign AXM5325
Flight time 2h 24m
Altitude 36000
Route ADLEX1F ADLEX Y446 PADLO Y447 OLKIT M758 OPULA DCT UPVUN M758 IDSEL DCT VPK G582 VBA DCT SUKAT A457 TEPUS GORVU1F
Aircraft A320/M-SDE3FGHIRWY/LB1

Departure

Time 2026-04-28 08:38
Airport Kota Kinabalu International Airport (WBKK)

Arrival

Time 2026-04-28 11:02
Airport Penang International Airport (WMKP)
Time Latitude Longitude Altitude Speed Heading
2026-04-28 08:18 5.92461 116.04983 29 ft 0 kts 113°
2026-04-28 08:27 5.92463 116.04980 29 ft 3 kts 113°
2026-04-28 08:27 5.92473 116.04956 29 ft 4 kts 113°
2026-04-28 08:28 5.92485 116.04933 29 ft 4 kts 133°
2026-04-28 08:28 5.92505 116.04920 29 ft 4 kts 185°
2026-04-28 08:28 5.92515 116.04922 29 ft 0 kts 203°
2026-04-28 08:30 5.92503 116.04917 29 ft 3 kts 203°
2026-04-28 08:30 5.92474 116.04905 29 ft 6 kts 203°
2026-04-28 08:30 5.92426 116.04884 29 ft 9 kts 204°
2026-04-28 08:31 5.92387 116.04841 29 ft 8 kts 259°
2026-04-28 08:31 5.92408 116.04796 29 ft 7 kts 297°
2026-04-28 08:31 5.92407 116.04753 29 ft 6 kts 242°
2026-04-28 08:31 5.92375 116.04733 29 ft 6 kts 202°
2026-04-28 08:32 5.92332 116.04715 29 ft 6 kts 202°
2026-04-28 08:32 5.92295 116.04700 29 ft 5 kts 203°
2026-04-28 08:32 5.92259 116.04684 29 ft 7 kts 203°
2026-04-28 08:32 5.92208 116.04663 29 ft 9 kts 203°
2026-04-28 08:33 5.92139 116.04634 29 ft 12 kts 202°
2026-04-28 08:33 5.92058 116.04600 29 ft 12 kts 202°
2026-04-28 08:33 5.91988 116.04571 29 ft 10 kts 202°
2026-04-28 08:33 5.91912 116.04539 29 ft 14 kts 202°
2026-04-28 08:34 5.91807 116.04494 29 ft 17 kts 207°
2026-04-28 08:34 5.91795 116.04412 29 ft 7 kts 294°
2026-04-28 08:34 5.91796 116.04410 29 ft 0 kts 294°
2026-04-28 08:35 5.91802 116.04397 29 ft 5 kts 294°
2026-04-28 08:35 5.91832 116.04343 29 ft 12 kts 315°
2026-04-28 08:35 5.91909 116.04350 29 ft 5 kts 23°
2026-04-28 08:35 5.91910 116.04350 29 ft 0 kts 22°
2026-04-28 08:37 5.91955 116.04369 29 ft 32 kts 22°
2026-04-28 08:37 5.92433 116.04571 29 ft 114 kts 22°
2026-04-28 08:37 5.93379 116.04974 32 ft 178 kts 23°
2026-04-28 08:37 5.94596 116.05497 572 ft 194 kts 22°
2026-04-28 08:38 5.95856 116.05977 1478 ft 198 kts 20°
2026-04-28 08:38 5.97246 116.06192 1907 ft 215 kts 349°
2026-04-28 08:38 5.98590 116.05405 2194 ft 241 kts 313°
2026-04-28 08:38 5.99615 116.04007 2560 ft 262 kts 302°
2026-04-28 08:39 6.00537 116.02389 3235 ft 270 kts 300°
2026-04-28 08:39 6.01455 116.00731 3979 ft 274 kts 301°
2026-04-28 08:39 6.02421 115.99068 4730 ft 277 kts 302°
2026-04-28 08:39 6.03446 115.97403 5442 ft 283 kts 301°
2026-04-28 08:40 6.04222 115.95576 6139 ft 288 kts 283°
2026-04-28 08:40 6.04408 115.93565 6803 ft 292 kts 264°
2026-04-28 08:40 6.04040 115.91551 7512 ft 294 kts 257°
2026-04-28 08:40 6.03596 115.89533 8227 ft 298 kts 257°
2026-04-28 08:41 6.03161 115.87519 8938 ft 301 kts 257°
2026-04-28 08:41 6.02717 115.85456 9643 ft 304 kts 257°
2026-04-28 08:41 6.02266 115.83367 10216 ft 311 kts 257°
2026-04-28 08:41 6.01792 115.81172 10374 ft 333 kts 257°
2026-04-28 08:42 6.01284 115.78821 10499 ft 355 kts 257°
2026-04-28 08:42 6.00751 115.76354 10843 ft 366 kts 257°
2026-04-28 08:42 6.00242 115.73833 11388 ft 371 kts 259°
2026-04-28 08:42 5.99803 115.71268 11959 ft 374 kts 261°
2026-04-28 08:43 5.99407 115.68676 12535 ft 377 kts 261°
2026-04-28 08:43 5.99026 115.66092 13098 ft 380 kts 261°
2026-04-28 08:43 5.98634 115.63454 13662 ft 384 kts 261°
2026-04-28 08:43 5.98226 115.60793 14152 ft 387 kts 261°
2026-04-28 08:44 5.97805 115.58115 14645 ft 390 kts 261°
2026-04-28 08:44 5.97376 115.55414 15123 ft 393 kts 261°
2026-04-28 08:44 5.96941 115.52690 15590 ft 396 kts 261°
2026-04-28 08:44 5.96502 115.49945 16048 ft 400 kts 261°
2026-04-28 08:45 5.96057 115.47179 16499 ft 403 kts 261°
2026-04-28 08:45 5.95608 115.44390 16952 ft 406 kts 261°
2026-04-28 08:45 5.95160 115.41613 17396 ft 409 kts 261°
2026-04-28 08:45 5.94704 115.38781 17837 ft 412 kts 261°
2026-04-28 08:46 5.94244 115.35929 18245 ft 415 kts 261°
2026-04-28 08:46 5.93782 115.33056 18616 ft 418 kts 261°
2026-04-28 08:46 5.93319 115.30166 18992 ft 420 kts 261°
2026-04-28 08:46 5.92854 115.27259 19371 ft 423 kts 261°
2026-04-28 08:47 5.92590 115.24316 19727 ft 425 kts 270°
2026-04-28 08:47 5.92674 115.21381 20090 ft 427 kts 272°
2026-04-28 08:47 5.92775 115.18393 20454 ft 429 kts 272°
2026-04-28 08:47 5.92876 115.15387 20810 ft 432 kts 272°
2026-04-28 08:48 5.92976 115.12365 21159 ft 434 kts 272°
2026-04-28 08:48 5.93074 115.09325 21506 ft 437 kts 272°
2026-04-28 08:48 5.93171 115.06269 21852 ft 439 kts 272°
2026-04-28 08:48 5.93268 115.03195 22189 ft 441 kts 272°
2026-04-28 08:49 5.93369 115.00106 22529 ft 444 kts 272°
2026-04-28 08:49 5.93471 114.97000 22859 ft 446 kts 272°
2026-04-28 08:49 5.93572 114.93920 23183 ft 448 kts 272°
2026-04-28 08:49 5.93673 114.90786 23483 ft 451 kts 272°
2026-04-28 08:50 5.93774 114.87631 23758 ft 453 kts 271°
2026-04-28 08:50 5.93876 114.84464 24031 ft 454 kts 271°
2026-04-28 08:50 5.93943 114.82363 24212 ft 455 kts 271°
2026-04-28 08:51 5.94182 114.74900 24837 ft 459 kts 271°
2026-04-28 08:51 5.94286 114.71690 25094 ft 461 kts 271°
2026-04-28 08:51 5.94393 114.68463 25347 ft 463 kts 271°
2026-04-28 08:51 5.94499 114.65233 25602 ft 464 kts 271°
2026-04-28 08:52 5.94602 114.61986 25859 ft 466 kts 271°
2026-04-28 08:52 5.94703 114.58726 26115 ft 467 kts 271°
2026-04-28 08:52 5.94804 114.55456 26370 ft 469 kts 271°
2026-04-28 08:52 5.94906 114.52180 26622 ft 471 kts 271°
2026-04-28 08:53 5.95009 114.48887 26870 ft 472 kts 271°
2026-04-28 08:53 5.95112 114.45629 27111 ft 474 kts 271°
2026-04-28 08:53 5.95217 114.42313 27351 ft 475 kts 271°
2026-04-28 08:53 5.95322 114.38990 27585 ft 477 kts 271°
2026-04-28 08:54 5.95425 114.35656 27831 ft 478 kts 271°
2026-04-28 08:54 5.95526 114.32314 28066 ft 479 kts 271°
2026-04-28 08:54 5.95628 114.28966 28287 ft 481 kts 271°
2026-04-28 08:54 5.95732 114.25608 28507 ft 482 kts 271°
2026-04-28 08:55 5.95837 114.22238 28718 ft 483 kts 271°
2026-04-28 08:55 5.95944 114.18856 28925 ft 485 kts 271°
2026-04-28 08:55 5.96051 114.15513 29134 ft 486 kts 271°
2026-04-28 08:55 5.96159 114.12114 29341 ft 488 kts 270°
2026-04-28 08:56 5.96264 114.08705 29539 ft 489 kts 270°
2026-04-28 08:56 5.96191 114.05303 29819 ft 487 kts 262°
2026-04-28 08:56 5.95598 114.01966 30066 ft 484 kts 253°
2026-04-28 08:56 5.94491 113.98788 30316 ft 481 kts 244°
2026-04-28 08:57 5.93001 113.95788 30564 ft 479 kts 241°
2026-04-28 08:57 5.91473 113.92819 30828 ft 478 kts 241°
2026-04-28 08:57 5.89945 113.89852 31053 ft 478 kts 241°
2026-04-28 08:57 5.88436 113.86926 31289 ft 478 kts 241°
2026-04-28 08:58 5.86907 113.83965 31553 ft 477 kts 241°
2026-04-28 08:58 5.85382 113.81015 31830 ft 476 kts 241°
2026-04-28 08:58 5.83858 113.78067 32109 ft 475 kts 241°
2026-04-28 08:58 5.82337 113.75132 32389 ft 473 kts 241°
2026-04-28 08:59 5.80816 113.72204 32659 ft 472 kts 241°
2026-04-28 08:59 5.79297 113.69283 32925 ft 472 kts 241°
2026-04-28 08:59 5.77784 113.66364 33200 ft 471 kts 242°
2026-04-28 08:59 5.76276 113.63451 33476 ft 470 kts 242°
2026-04-28 09:00 5.74772 113.60546 33747 ft 469 kts 242°
2026-04-28 09:00 5.71772 113.54760 33828 ft 472 kts 242°
2026-04-28 09:01 5.68734 113.48911 33822 ft 473 kts 242°
2026-04-28 09:01 5.65693 113.43059 33822 ft 473 kts 242°
2026-04-28 09:02 5.62671 113.37235 33820 ft 474 kts 242°
2026-04-28 09:02 5.59621 113.31362 33825 ft 475 kts 242°
2026-04-28 09:03 5.56578 113.25512 33823 ft 472 kts 242°
2026-04-28 09:03 5.53544 113.19677 33825 ft 471 kts 242°
2026-04-28 09:04 5.50519 113.13840 33825 ft 471 kts 242°
2026-04-28 09:04 5.47506 113.08042 33823 ft 473 kts 242°
2026-04-28 09:05 5.44461 113.02169 33827 ft 474 kts 242°
2026-04-28 09:05 5.41408 112.96297 33826 ft 475 kts 242°
2026-04-28 09:06 5.38343 112.90428 33827 ft 475 kts 242°
2026-04-28 09:06 5.35303 112.84598 33823 ft 475 kts 242°
2026-04-28 09:07 5.32248 112.78723 33826 ft 475 kts 242°
2026-04-28 09:07 5.29205 112.72862 33825 ft 473 kts 242°
2026-04-28 09:08 5.26158 112.67018 33826 ft 473 kts 242°
2026-04-28 09:08 5.23125 112.61207 33826 ft 473 kts 242°
2026-04-28 09:09 5.20067 112.55358 33828 ft 474 kts 242°
2026-04-28 09:09 5.17012 112.49507 33829 ft 473 kts 242°
2026-04-28 09:10 5.13972 112.43647 33824 ft 474 kts 242°
2026-04-28 09:10 5.10930 112.37818 33826 ft 475 kts 242°
2026-04-28 09:11 5.07862 112.31948 33826 ft 475 kts 242°
2026-04-28 09:11 5.04793 112.26076 33827 ft 475 kts 242°
2026-04-28 09:12 5.01733 112.20203 33831 ft 475 kts 242°
2026-04-28 09:12 4.98668 112.14329 33828 ft 475 kts 242°
2026-04-28 09:13 4.95624 112.08493 33831 ft 476 kts 241°
2026-04-28 09:13 4.92565 112.02639 33833 ft 469 kts 240°
2026-04-28 09:14 4.89550 111.96876 33827 ft 465 kts 240°
2026-04-28 09:14 4.86549 111.91137 33829 ft 464 kts 240°
2026-04-28 09:15 4.83701 111.85374 33827 ft 466 kts 248°
2026-04-28 09:15 4.81984 111.79102 33834 ft 467 kts 255°
2026-04-28 09:16 4.80395 111.72790 33833 ft 467 kts 255°
2026-04-28 09:16 4.78785 111.66481 33827 ft 467 kts 255°
2026-04-28 09:17 4.77188 111.60214 33829 ft 467 kts 255°
2026-04-28 09:17 4.75583 111.53901 33830 ft 467 kts 255°
2026-04-28 09:18 4.73981 111.47596 33829 ft 467 kts 255°
2026-04-28 09:18 4.72383 111.41282 33829 ft 467 kts 255°
2026-04-28 09:19 4.70792 111.35016 33832 ft 467 kts 255°
2026-04-28 09:19 4.69189 111.28704 33830 ft 467 kts 255°
2026-04-28 09:20 4.67578 111.22398 33831 ft 467 kts 254°
2026-04-28 09:20 4.65965 111.16089 33830 ft 467 kts 255°
2026-04-28 09:21 4.64365 111.09791 33833 ft 473 kts 255°
2026-04-28 09:21 4.62735 111.03371 33828 ft 476 kts 255°
2026-04-28 09:22 4.61102 110.96953 33834 ft 475 kts 255°
2026-04-28 09:22 4.59462 110.90546 33833 ft 474 kts 255°
2026-04-28 09:23 4.57835 110.84186 33831 ft 474 kts 255°
2026-04-28 09:23 4.56206 110.77780 33831 ft 476 kts 255°
2026-04-28 09:24 4.54558 110.71336 33830 ft 478 kts 255°
2026-04-28 09:24 4.52905 110.64878 33833 ft 478 kts 255°
2026-04-28 09:25 4.51251 110.58421 33836 ft 478 kts 255°
2026-04-28 09:25 4.49616 110.52003 33831 ft 478 kts 255°
2026-04-28 09:26 4.47971 110.45541 33833 ft 479 kts 255°
2026-04-28 09:26 4.46313 110.39059 33836 ft 481 kts 255°
2026-04-28 09:27 4.43816 110.29334 33835 ft 480 kts 255°
2026-04-28 09:27 4.42159 110.22889 33835 ft 481 kts 255°
2026-04-28 09:28 4.40503 110.16405 33835 ft 481 kts 255°
2026-04-28 09:28 4.39127 110.11010 33839 ft 481 kts 255°
2026-04-28 09:29 4.37188 110.03429 33835 ft 480 kts 255°
2026-04-28 09:29 4.35533 109.96991 33835 ft 480 kts 255°
2026-04-28 09:30 4.34140 109.91559 33838 ft 480 kts 255°
2026-04-28 09:30 4.32491 109.85117 33838 ft 480 kts 255°
2026-04-28 09:31 4.30829 109.78633 33831 ft 481 kts 255°
2026-04-28 09:31 4.29157 109.72146 33835 ft 480 kts 255°
2026-04-28 09:32 4.27225 109.64633 33835 ft 479 kts 255°
2026-04-28 09:32 4.25571 109.58173 33835 ft 479 kts 255°
2026-04-28 09:33 4.24180 109.52806 33834 ft 479 kts 255°
2026-04-28 09:33 4.22487 109.46358 33835 ft 479 kts 255°
2026-04-28 09:34 4.20793 109.39894 33836 ft 480 kts 255°
2026-04-28 09:34 4.19109 109.33465 33838 ft 480 kts 255°
2026-04-28 09:35 4.17421 109.26990 33838 ft 480 kts 255°
2026-04-28 09:35 4.15463 109.19470 33841 ft 480 kts 255°
2026-04-28 09:36 4.14046 109.14051 33844 ft 480 kts 255°
2026-04-28 09:36 4.12363 109.07623 33843 ft 480 kts 255°
2026-04-28 09:37 4.10670 109.01153 33841 ft 480 kts 255°
2026-04-28 09:37 4.08972 108.94686 33841 ft 480 kts 255°
2026-04-28 09:38 4.07276 108.88221 33840 ft 480 kts 255°
2026-04-28 09:38 4.05578 108.81753 33841 ft 480 kts 255°
2026-04-28 09:39 4.03896 108.75326 33840 ft 480 kts 255°
2026-04-28 09:39 4.02207 108.68872 33841 ft 479 kts 255°
2026-04-28 09:40 4.00525 108.62422 33841 ft 479 kts 255°
2026-04-28 09:40 3.98847 108.55972 33841 ft 479 kts 255°
2026-04-28 09:41 3.97173 108.49522 33843 ft 478 kts 255°
2026-04-28 09:41 3.95497 108.43074 33845 ft 478 kts 255°
2026-04-28 09:42 3.93831 108.36688 33843 ft 476 kts 254°
2026-04-28 09:42 3.92159 108.30270 33844 ft 476 kts 254°
2026-04-28 09:43 3.90485 108.23858 33844 ft 476 kts 254°
2026-04-28 09:43 3.88812 108.17443 33844 ft 476 kts 254°
2026-04-28 09:44 3.87152 108.11069 33843 ft 476 kts 254°
2026-04-28 09:44 3.85477 108.04654 33843 ft 476 kts 254°
2026-04-28 09:45 3.83802 107.98238 33843 ft 476 kts 254°
2026-04-28 09:45 3.82123 107.91824 33844 ft 476 kts 254°
2026-04-28 09:46 3.80442 107.85408 33847 ft 476 kts 254°
2026-04-28 09:46 3.78780 107.79036 33846 ft 476 kts 254°
2026-04-28 09:47 3.77107 107.72618 33845 ft 476 kts 254°
2026-04-28 09:47 3.75429 107.66215 33843 ft 475 kts 254°
2026-04-28 09:48 3.73750 107.59814 33844 ft 475 kts 254°
2026-04-28 09:48 3.72087 107.53460 33844 ft 475 kts 254°
2026-04-28 09:49 3.70413 107.47058 33844 ft 475 kts 254°
2026-04-28 09:49 3.68740 107.40666 33843 ft 475 kts 254°
2026-04-28 09:50 3.67055 107.34247 33843 ft 478 kts 255°
2026-04-28 09:50 3.65370 107.27798 33846 ft 479 kts 255°
2026-04-28 09:51 3.63686 107.21380 33842 ft 481 kts 254°
2026-04-28 09:51 3.61990 107.14904 33841 ft 481 kts 254°
2026-04-28 09:52 3.60288 107.08424 33844 ft 481 kts 254°
2026-04-28 09:52 3.58587 107.01951 33840 ft 478 kts 255°
2026-04-28 09:53 3.56911 106.95579 33841 ft 476 kts 255°
2026-04-28 09:53 3.55947 106.89054 33842 ft 475 kts 267°
2026-04-28 09:54 3.55235 106.75132 33840 ft 475 kts 267°
2026-04-28 09:55 3.54892 106.68521 33843 ft 475 kts 267°
2026-04-28 09:55 3.54562 106.61921 33841 ft 475 kts 267°
2026-04-28 09:56 3.54221 106.55323 33844 ft 474 kts 267°
2026-04-28 09:56 3.53885 106.48774 33843 ft 475 kts 267°
2026-04-28 09:57 3.53541 106.42173 33844 ft 475 kts 267°
2026-04-28 09:57 3.53191 106.35578 33843 ft 475 kts 267°
2026-04-28 09:58 3.52849 106.28979 33838 ft 474 kts 267°
2026-04-28 09:58 3.52525 106.22384 33838 ft 475 kts 267°
2026-04-28 09:59 3.52196 106.15830 33838 ft 474 kts 267°
2026-04-28 09:59 3.51857 106.09235 33838 ft 475 kts 267°
2026-04-28 10:00 3.51521 106.02643 33837 ft 474 kts 268°
2026-04-28 10:00 3.51181 105.96047 33838 ft 475 kts 267°
2026-04-28 10:01 3.50843 105.89451 33838 ft 474 kts 267°
2026-04-28 10:01 3.50511 105.82899 33838 ft 474 kts 268°
2026-04-28 10:02 3.50171 105.76306 33838 ft 474 kts 267°
2026-04-28 10:02 3.49841 105.69709 33838 ft 475 kts 268°
2026-04-28 10:03 3.49521 105.63120 33838 ft 474 kts 267°
2026-04-28 10:03 3.49187 105.56523 33838 ft 475 kts 267°
2026-04-28 10:04 3.48847 105.49965 33838 ft 475 kts 267°
2026-04-28 10:04 3.48508 105.43358 33838 ft 475 kts 267°
2026-04-28 10:05 3.48179 105.36757 33838 ft 475 kts 267°
2026-04-28 10:05 3.47851 105.30141 33838 ft 476 kts 267°
2026-04-28 10:06 3.47523 105.23509 33838 ft 483 kts 267°
2026-04-28 10:06 3.47178 105.16787 33838 ft 484 kts 267°
2026-04-28 10:07 3.46831 105.10061 33841 ft 484 kts 267°
2026-04-28 10:07 3.46486 105.03337 33841 ft 484 kts 267°
2026-04-28 10:08 3.46149 104.96654 33841 ft 484 kts 267°
2026-04-28 10:08 3.45809 104.89927 33837 ft 483 kts 267°
2026-04-28 10:09 3.45456 104.83210 33841 ft 483 kts 267°
2026-04-28 10:09 3.45110 104.76498 33841 ft 483 kts 267°
2026-04-28 10:10 3.44774 104.69782 33840 ft 483 kts 267°
2026-04-28 10:10 3.44437 104.63118 33840 ft 483 kts 267°
2026-04-28 10:11 3.44086 104.56408 33841 ft 483 kts 267°
2026-04-28 10:11 3.43738 104.49697 33841 ft 483 kts 267°
2026-04-28 10:12 3.43394 104.42986 33841 ft 483 kts 267°
2026-04-28 10:12 3.43066 104.36320 33840 ft 483 kts 267°
2026-04-28 10:13 3.42735 104.29606 33838 ft 483 kts 267°
2026-04-28 10:13 3.42399 104.22895 33838 ft 483 kts 267°
2026-04-28 10:14 3.42060 104.16217 33838 ft 484 kts 267°
2026-04-28 10:14 3.41772 104.10578 33838 ft 484 kts 267°
2026-04-28 10:15 3.41381 104.02750 33841 ft 485 kts 267°
2026-04-28 10:15 3.41050 103.96011 33841 ft 485 kts 267°
2026-04-28 10:16 3.40774 103.90410 33837 ft 485 kts 267°
2026-04-28 10:16 3.40483 103.83672 33835 ft 485 kts 268°
2026-04-28 10:17 3.40227 103.76954 33829 ft 487 kts 268°
2026-04-28 10:17 3.39957 103.70189 33830 ft 487 kts 267°
2026-04-28 10:18 3.39670 103.63421 33827 ft 487 kts 268°
2026-04-28 10:18 3.39393 103.56653 33827 ft 487 kts 268°
2026-04-28 10:19 3.39075 103.48788 33818 ft 487 kts 268°
2026-04-28 10:19 3.38800 103.42017 33822 ft 487 kts 267°
2026-04-28 10:20 3.38577 103.36393 33821 ft 487 kts 268°
2026-04-28 10:20 3.38333 103.29625 33818 ft 487 kts 268°
2026-04-28 10:21 3.38103 103.22854 33818 ft 487 kts 268°
2026-04-28 10:21 3.37869 103.16129 33816 ft 487 kts 268°
2026-04-28 10:22 3.37621 103.09349 33816 ft 488 kts 268°
2026-04-28 10:22 3.37370 103.02564 33810 ft 488 kts 268°
2026-04-28 10:23 3.37126 102.95765 33813 ft 489 kts 268°
2026-04-28 10:23 3.36883 102.89020 33804 ft 489 kts 268°
2026-04-28 10:24 3.36634 102.82224 33804 ft 489 kts 268°
2026-04-28 10:24 3.36383 102.75431 33792 ft 488 kts 268°
2026-04-28 10:25 3.36136 102.68646 33797 ft 488 kts 268°
2026-04-28 10:25 3.35890 102.61910 33791 ft 488 kts 268°
2026-04-28 10:26 3.35755 102.55120 33791 ft 488 kts 269°
2026-04-28 10:26 3.35715 102.48335 33791 ft 488 kts 269°
2026-04-28 10:27 3.35661 102.41551 33791 ft 488 kts 269°
2026-04-28 10:27 3.35572 102.34806 33792 ft 488 kts 269°
2026-04-28 10:28 3.35476 102.28020 33794 ft 488 kts 269°
2026-04-28 10:29 3.35336 102.17830 33802 ft 488 kts 269°
2026-04-28 10:29 3.35246 102.11036 33803 ft 488 kts 269°
2026-04-28 10:30 3.35152 102.04288 33798 ft 488 kts 268°
2026-04-28 10:30 3.34864 101.97508 33801 ft 488 kts 266°
2026-04-28 10:31 3.34435 101.90738 33805 ft 487 kts 266°
2026-04-28 10:31 3.34026 101.83969 33800 ft 487 kts 266°
2026-04-28 10:32 3.33670 101.77246 33788 ft 487 kts 266°
2026-04-28 10:32 3.33327 101.70472 33773 ft 487 kts 267°
2026-04-28 10:33 3.32984 101.63708 33771 ft 487 kts 266°
2026-04-28 10:33 3.32750 101.56925 33765 ft 487 kts 268°
2026-04-28 10:34 3.32676 101.50201 33761 ft 487 kts 274°
2026-04-28 10:34 3.34260 101.43623 33768 ft 488 kts 293°
2026-04-28 10:35 3.37558 101.37713 33776 ft 486 kts 301°
2026-04-28 10:35 3.41036 101.31930 33780 ft 485 kts 301°
2026-04-28 10:36 3.44500 101.26178 33782 ft 486 kts 301°
2026-04-28 10:36 3.47997 101.20370 33781 ft 487 kts 301°
2026-04-28 10:37 3.51491 101.14566 33779 ft 487 kts 301°
2026-04-28 10:37 3.54984 101.08744 33780 ft 488 kts 301°
2026-04-28 10:38 3.58986 101.03350 33781 ft 487 kts 317°
2026-04-28 10:38 3.64531 100.99527 33789 ft 485 kts 336°
2026-04-28 10:39 3.70688 100.96768 33784 ft 485 kts 336°
2026-04-28 10:39 3.76845 100.94000 33779 ft 485 kts 336°
2026-04-28 10:40 3.82996 100.91227 33784 ft 484 kts 336°
2026-04-28 10:40 3.89099 100.88478 33783 ft 485 kts 336°
2026-04-28 10:41 3.95250 100.85716 33785 ft 484 kts 336°
2026-04-28 10:41 4.01397 100.82954 33785 ft 484 kts 336°
2026-04-28 10:42 4.07539 100.80196 33781 ft 479 kts 336°
2026-04-28 10:42 4.10526 100.78852 33679 ft 476 kts 336°
2026-04-28 10:42 4.13539 100.77495 33420 ft 475 kts 336°
2026-04-28 10:42 4.16550 100.76139 33163 ft 475 kts 336°
2026-04-28 10:43 4.19567 100.74788 32912 ft 475 kts 336°
2026-04-28 10:43 4.22592 100.73457 32662 ft 475 kts 337°
2026-04-28 10:43 4.25626 100.72140 32422 ft 475 kts 337°
2026-04-28 10:43 4.28665 100.70830 32177 ft 476 kts 337°
2026-04-28 10:44 4.31707 100.69518 31937 ft 476 kts 338°
2026-04-28 10:44 4.34751 100.68200 31697 ft 477 kts 337°
2026-04-28 10:44 4.37796 100.66875 31425 ft 477 kts 337°
2026-04-28 10:44 4.40806 100.65561 30416 ft 482 kts 338°
2026-04-28 10:45 4.43889 100.64211 29660 ft 482 kts 337°
2026-04-28 10:45 4.46943 100.62874 28973 ft 477 kts 338°
2026-04-28 10:45 4.49969 100.61555 28296 ft 472 kts 337°
2026-04-28 10:45 4.52971 100.60251 27188 ft 473 kts 337°
2026-04-28 10:46 4.55899 100.58660 25294 ft 485 kts 325°
2026-04-28 10:46 4.58618 100.56626 23544 ft 491 kts 323°
2026-04-28 10:46 4.61300 100.54567 22131 ft 480 kts 323°
2026-04-28 10:46 4.63918 100.52536 20791 ft 471 kts 323°
2026-04-28 10:47 4.66447 100.50565 19537 ft 462 kts 323°
2026-04-28 10:47 4.68964 100.48605 18326 ft 454 kts 323°
2026-04-28 10:47 4.71443 100.46682 17015 ft 447 kts 323°
2026-04-28 10:47 4.73883 100.44800 15755 ft 439 kts 323°
2026-04-28 10:48 4.76289 100.42952 14552 ft 431 kts 323°
2026-04-28 10:48 4.78650 100.41145 13378 ft 424 kts 323°
2026-04-28 10:48 4.80972 100.39370 12115 ft 416 kts 323°
2026-04-28 10:48 4.83250 100.37627 10908 ft 408 kts 323°
2026-04-28 10:49 4.85453 100.35936 9757 ft 401 kts 323°
2026-04-28 10:49 4.87645 100.34247 8502 ft 394 kts 323°
2026-04-28 10:49 4.89790 100.32589 7276 ft 386 kts 323°
2026-04-28 10:49 4.91900 100.30958 6077 ft 379 kts 323°
2026-04-28 10:50 4.93971 100.29362 4820 ft 372 kts 323°
2026-04-28 10:50 4.95995 100.27804 3788 ft 359 kts 323°
2026-04-28 10:50 4.97864 100.26366 3860 ft 317 kts 323°
2026-04-28 10:50 4.99506 100.25102 3972 ft 282 kts 324°
2026-04-28 10:51 5.01036 100.23921 4016 ft 275 kts 323°
2026-04-28 10:51 5.02541 100.22761 4021 ft 272 kts 324°
2026-04-28 10:51 5.04021 100.21620 4020 ft 272 kts 324°
2026-04-28 10:51 5.05507 100.20479 4018 ft 262 kts 324°
2026-04-28 10:52 5.06809 100.19204 4023 ft 269 kts 303°
2026-04-28 10:52 5.07433 100.17426 4020 ft 275 kts 275°
2026-04-28 10:52 5.07157 100.15538 4021 ft 277 kts 247°
2026-04-28 10:52 5.06104 100.13925 4021 ft 278 kts 227°
2026-04-28 10:53 5.04722 100.12568 4034 ft 278 kts 222°
2026-04-28 10:53 5.03311 100.11291 4032 ft 269 kts 221°
2026-04-28 10:53 5.01935 100.10056 4036 ft 268 kts 221°
2026-04-28 10:53 5.00548 100.08810 4039 ft 268 kts 221°
2026-04-28 10:54 4.99158 100.07564 4043 ft 268 kts 221°
2026-04-28 10:54 4.97822 100.06266 4043 ft 267 kts 233°
2026-04-28 10:54 4.97010 100.04610 4042 ft 266 kts 258°
2026-04-28 10:54 4.96957 100.02775 4043 ft 264 kts 282°
2026-04-28 10:55 4.97657 100.01093 4043 ft 262 kts 307°
2026-04-28 10:55 4.98972 99.99854 4046 ft 268 kts 331°
2026-04-28 10:55 5.00724 99.99259 4044 ft 268 kts 356°
2026-04-28 10:55 5.02559 99.99455 4043 ft 267 kts 20°
2026-04-28 10:56 5.04143 100.00405 4045 ft 272 kts 44°
2026-04-28 10:56 5.05353 100.01890 4042 ft 277 kts 53°
2026-04-28 10:56 5.06516 100.03438 4041 ft 278 kts 53°
2026-04-28 10:56 5.07676 100.04985 4038 ft 278 kts 53°
2026-04-28 10:57 5.08841 100.06534 4034 ft 278 kts 53°
2026-04-28 10:57 5.09995 100.08061 4032 ft 278 kts 53°
2026-04-28 10:57 5.11163 100.09604 4024 ft 278 kts 53°
2026-04-28 10:57 5.12332 100.11146 4019 ft 274 kts 52°
2026-04-28 10:58 5.13424 100.12590 3997 ft 246 kts 53°
2026-04-28 10:58 5.14512 100.13875 3556 ft 238 kts 45°
2026-04-28 10:58 5.15692 100.14995 3231 ft 230 kts 42°
2026-04-28 10:58 5.16879 100.16064 2937 ft 229 kts 41°
2026-04-28 10:59 5.18050 100.17120 2638 ft 229 kts 41°
2026-04-28 10:59 5.19232 100.18190 2346 ft 229 kts 41°
2026-04-28 10:59 5.20409 100.19256 2041 ft 225 kts 41°
2026-04-28 10:59 5.21540 100.20281 1768 ft 214 kts 41°
2026-04-28 11:00 5.22622 100.21261 1511 ft 205 kts 40°
2026-04-28 11:00 5.23633 100.22176 1250 ft 187 kts 41°
2026-04-28 11:00 5.24549 100.23006 1028 ft 167 kts 39°
2026-04-28 11:00 5.25375 100.23754 843 ft 154 kts 41°
2026-04-28 11:01 5.26141 100.24447 669 ft 147 kts 40°
2026-04-28 11:01 5.26901 100.25136 496 ft 148 kts 40°
2026-04-28 11:01 5.27667 100.25821 292 ft 147 kts 40°
2026-04-28 11:01 5.28425 100.26513 96 ft 148 kts 41°
2026-04-28 11:02 5.29152 100.27174 24 ft 119 kts 42°
2026-04-28 11:02 5.29543 100.27527 23 ft 39 kts 42°
2026-04-28 11:02 5.29738 100.27706 25 ft 38 kts 43°
2026-04-28 11:02 5.29903 100.27808 27 ft 25 kts 18°
2026-04-28 11:03 5.30065 100.27846 23 ft 18 kts 12°
2026-04-28 11:03 5.30123 100.27803 22 ft 13 kts 233°
2026-04-28 11:03 5.30053 100.27733 22 ft 16 kts 224°
2026-04-28 11:03 5.29965 100.27650 23 ft 19 kts 220°
2026-04-28 11:04 5.29858 100.27555 23 ft 22 kts 222°
2026-04-28 11:04 5.29737 100.27445 22 ft 25 kts 222°
2026-04-28 11:04 5.29606 100.27326 22 ft 26 kts 222°
2026-04-28 11:04 5.29468 100.27201 22 ft 27 kts 222°
2026-04-28 11:05 5.29352 100.27096 22 ft 17 kts 222°
2026-04-28 11:05 5.29259 100.27012 23 ft 19 kts 222°
2026-04-28 11:05 5.29183 100.26922 23 ft 13 kts 270°
2026-04-28 11:05 5.29235 100.26857 22 ft 12 kts 312°
2026-04-28 11:06 5.29278 100.26841 22 ft 6 kts 21°
2026-04-28 11:06 5.29310 100.26865 22 ft 5 kts 42°
2026-04-28 11:06 5.29333 100.26859 24 ft 4 kts 321°
2026-04-28 11:06 5.29356 100.26833 22 ft 6 kts 311°
2026-04-28 11:07 5.29381 100.26805 22 ft 0 kts 312°
2026-04-28 11:07 5.29384 100.26801 22 ft 0 kts 312°